Location: Shannon
(40.5500°S, 175.4167°E)
Time: 21:48:59
(UTC+00:00)

Meteor 1-22 Rocket - Pass Details

Date: 17 November 2025
Orbit: 789 x 935 km, 81.2° (Epoch: 06 December)

Event Time Altitude Azimuth Distance (km) Brightness Sun altitude
Exits shadow 14:47:13 31° 338° (NNW) 1,567 5.1 -19.2°
Maximum altitude 14:50:14 73° 260° (W) 973 4.4 -18.8°
Drops below altitude 10° 14:56:14 10° 174° (S) 2,610 7.5 -18.1°
Sets 14:58:41 0° 172° (S) 3,537 8.4 -17.7°
